Location: DeLan Observatory
(46.9670°N, 70.5500°W)
Time: 21:21:55
(UTC-04:00)

Tiangong 2 - Visible Passes

Search period start: 19 March 2019 00:00
Search period end: 29 March 2019 00:00
Orbit: 379 x 390 km, 42.8° (Epoch: 19 March)

Date Brightness Start Highest point End Pass type
(mag) Time Alt. Az. Time Alt. Az. Time Alt. Az.
19 Mar 2.0 05:04:58 35° S 05:04:58 35° S 05:07:42 10° ESE visible
20 Mar 4.3 04:08:17 10° ESE 04:08:17 10° ESE 04:08:22 10° ESE visible
20 Mar 2.5 05:40:31 18° SW 05:41:44 23° SSW 05:44:21 10° SE visible
21 Mar 3.1 04:43:55 20° SSE 04:43:55 20° SSE 04:45:15 10° SE visible
22 Mar 3.0 05:19:39 17° SSW 05:19:39 17° SSW 05:21:28 10° SSE visible
